Location: Benstorf
(52.0936°N, 9.6468°E)
Time: 16:38:52
(UTC+00:00)

Daily predictions for brighter satellites

Satellite Brightness Start Highest point End
(mag) Time Altitude Azimuth Time Altitude Azimuth Time Altitude Azimuth
Cosmos 1656 4.1 16:22:26 10° NW 16:28:00 69° WSW 16:33:27 10° SSE
Cosmos 1943 4.2 16:24:41 10° WSW 16:30:04 44° NW 16:35:31 10° NNE
Meteor 1-21 4.3 16:29:22 10° S 16:34:58 87° ESE 16:40:37 10° NNE
ATLAS 3B R/B 3.9 16:29:43 10° WNW 16:36:51 35° N 16:43:55 10° ENE
Okean 2 3.2 16:33:18 10° S 16:37:05 61° E 16:40:54 10° NNE
Cosmos 1821 Rocket 4.1 16:33:37 10° N 16:39:50 87° W 16:45:56 10° S
ARIANE 5 R/B 2.5 16:35:36 10° SSE 16:40:46 69° ENE 16:45:56 10° NNW
USA 305 3.5 16:37:58 10° SSW 16:41:17 35° SE 16:44:56 10° ENE
YAOGAN 1 3.4 16:38:25 10° ESE 16:42:00 27° ENE 16:45:36 10° N
Cosmos 1340 Rocket 2.9 16:38:53 10° NNW 16:42:44 80° W 16:46:35 10° S
BREEZE-M DEB (TANK) 3.1 16:40:10 10° WSW 16:45:35 80° S 16:50:06 10° E
COSMOS 2455 2.9 16:40:15 10° NW 16:46:17 64° NE 16:52:15 10° SE
CZ-2D R/B 2.7 16:43:42 10° SSE 16:46:46 59° ENE 16:49:51 10° N
SAR-Lupe-1 4.4 16:44:57 10° SE 16:48:19 41° ENE 16:51:43 10° N
NOSS 3-4 (A) 3.6 16:43:03 10° WSW 16:48:23 62° NW 16:54:27 10° NE
NOSS 3-4 (C) 3.6 16:43:12 10° WSW 16:48:35 63° NW 16:54:40 10° NE
BREEZE-M DEB (TANK) 4.5 16:50:11 10° WSW 16:52:46 28° SSW 16:59:28 10° SE
Cosmos 2237 Rocket 4.3 16:50:54 10° NW 16:53:15 12° NNW 16:55:36 10° N
Cosmos 1515 Rocket 4.1 16:49:49 10° SSW 16:54:12 61° WNW 16:58:37 10° N
UNK 3.6 16:50:51 10° NNE 16:55:24 76° ESE 16:59:55 10° S
PSLV R/B 4.4 16:52:52 10° ESE 16:56:22 26° ENE 16:59:51 10° N
NOSS 8 (A) 4.4 16:53:59 10° NW 16:56:44 42° NE 16:59:39 10° ESE
NOSS 3-1 (A) 4.0 16:51:36 10° NW 16:58:04 58° NE 17:06:18 10° ESE
CZ-2D R/B 3.9 16:54:42 10° SE 16:58:06 32° ENE 17:01:34 10° N
Cosmos 2322 Rocket 3.9 16:57:03 10° NNW 17:00:23 16° NNE 17:02:57 12° NE
USA 276 2.4 16:58:53 10° W 17:01:03 41° S 17:03:12 12° ESE
SL-16 R/B 4.2 16:58:27 10° WNW 17:02:20 18° NNW 17:06:14 10° NNE
RESURS DK-1 3.0 16:58:42 10° SW 17:02:36 51° NW 17:06:31 10° NNE
Cosmos 1302 Rocket 4.0 16:57:21 10° SSW 17:02:38 89° WNW 17:07:57 10° NNE
SAR-Lupe-4 3.5 17:01:04 10° SSE 17:04:36 65° ENE 17:08:10 10° N
SKYMED 2 4.1 17:02:00 10° NNE 17:06:05 37° E 17:10:07 10° SSE
Cosmos 1503 Rocket 4.5 17:02:37 10° NNW 17:07:30 38° NE 17:12:24 10° ESE
NOSS 3-1 (C) 4.0 17:00:53 10° NW 17:07:42 87° SW 17:16:19 10° SE
Cosmos 1934 Rocket 4.0 17:02:22 10° N 17:08:30 64° ENE 17:14:43 10° SSE
Radarsat Rocket 4.1 17:03:58 10° SE 17:09:39 50° ENE 17:15:16 10° N
SJ-12 4.0 17:06:52 10° S 17:10:41 72° WSW 17:14:31 10° NNW
CARTOSAT-1 4.2 17:10:09 10° SE 17:13:53 32° ENE 17:17:39 10° N
Cosmos 1733 Rocket 3.0 17:10:29 10° N 17:14:50 63° ENE 17:19:07 10° SSE
Cosmos 2333 Rocket 3.6 17:12:43 10° NNW 17:17:02 21° NNE 17:19:13 17° ENE
USA 59 Rocket 1.6 17:14:35 10° WNW 17:17:45 33° SW 17:21:47 10° SSE
MOS 1 Rocket 4.4 17:13:21 10° S 17:18:17 52° W 17:23:00 10° NNW
Cosmos 1980 Rocket 2.2 17:14:21 10° NNW 17:19:55 61° NE 17:25:28 10° SE
Cosmos 1992 Rocket 3.9 17:16:26 10° SSW 17:21:35 78° ESE 17:26:48 10° NNE
Cosmos 2369 4.0 17:24:54 10° NNW 17:30:20 45° NE 17:35:01 14° ESE
ATLAS 5 CENTAUR R/B 3.2 17:32:36 10° NW 17:34:39 15° N 17:36:00 13° NNE
Okean 3 4.2 17:30:45 10° SSW 17:34:40 50° WNW 17:38:36 10° N
Cosmos 2219 Rocket 3.9 17:32:17 10° NNW 17:35:36 16° NNE 17:36:42 15° NE
Cosmos 1486 Rocket 3.9 17:31:54 10° NNW 17:37:15 82° ENE 17:42:32 10° SSE
ARIANE 6 FM1 Upper Stage 3.8 17:35:48 10° S 17:39:08 25° ESE 17:39:22 24° ESE
SPOT 5 4.4 17:40:43 16° NNE 17:40:43 16° NNE 17:42:25 10° NNE
Cosmos 1697 Rocket 3.5 17:35:00 10° NW 17:40:31 54° WSW 17:46:00 10° S
BREEZE-M DEB (TANK) 3.4 17:38:04 10° WSW 17:41:23 62° SSE 17:47:10 22° E
ISS -3.7 17:42:05 10° W 17:45:25 71° SSW 17:46:23 42° ESE
NOAA 6 3.9 17:41:38 10° SSE 17:46:42 71° ENE 17:51:50 10° NNW
Okean 1-7 2.8 17:42:47 10° S 17:46:52 68° E 17:50:42 12° NNE
Cosmos 1833 Rocket 2.8 17:41:31 10° SSW 17:47:10 80° WNW 17:52:09 14° NNE
Cosmos 1354 Rocket 4.1 17:42:11 10° NNW 17:47:19 52° ENE 17:51:11 17° SE
SPOT 1/Viking Rocket 4.2 17:43:22 10° S 17:48:24 56° W 17:53:28 10° NNW
SL-16 R/B 4.1 17:43:26 10° N 17:48:51 33° WNW 17:54:15 10° WSW
Cosmos 2360 Rocket 3.4 17:45:23 10° NNW 17:49:42 22° NE 17:50:14 22° NE
USA 267 3.4 17:46:25 25° E 17:50:19 62° N 17:56:46 10° WNW
Nadezhda 3 Rocket 4.5 17:44:41 10° SSW 17:50:45 61° WNW 17:56:56 10° N
BlueWalker 3 2.6 17:48:43 10° SSW 17:51:57 33° SSE 17:52:09 33° SE
Resurs 01 Rocket 1.6 17:49:21 10° SSE 17:53:37 58° ENE 17:57:57 10° N
Cosmos 2228 Rocket 2.9 17:50:14 10° S 17:54:40 71° E 17:58:52 11° NNE
IRAS Rocket 4.1 17:50:06 10° SSE 17:55:36 69° ENE 18:01:11 10° NNW
Cosmos 2082 Rocket 2.8 17:51:18 10° SSE 17:56:14 33° ESE 17:56:44 32° E
Timation 1 Rocket 4.4 17:51:12 10° S 17:56:58 54° ESE 18:00:00 28° NE
Cosmos 2237 4.3 17:53:51 10° NNW 17:59:28 55° NE 18:02:05 30° ESE
SL-16 R/B 2.8 17:55:12 10° NNW 18:00:26 36° NE 18:01:19 34° ENE
COSMO-SKYMED 1 2.3 17:58:32 18° NNE 18:01:31 79° ESE 18:05:37 10° SSW
Cosmos 1777 Rocket 4.0 17:57:00 10° NNW 18:02:13 80° WSW 18:07:25 10° SSE
SJ-6B 4.2 18:04:21 21° N 18:04:21 21° N 18:05:43 10° N
Spot 4 Rocket 4.3 17:58:43 10° S 18:03:48 69° WSW 18:08:57 10° NNW
Resurs 1-3 4.4 18:02:04 10° S 18:06:15 51° W 18:10:29 10° NNW
USA 305 2.5 18:03:35 10° WSW 18:07:30 84° NNW 18:07:59 68° ENE
Cosmos 1300 Rocket 4.4 18:04:48 10° N 18:07:44 34° NNE 18:07:44 34° NNE
Cosmos 990 Rocket 3.9 18:03:59 10° NNW 18:09:14 67° ENE 18:11:49 30° SE
Meteor 2-14 Rocket 4.5 18:09:58 10° SSE 18:15:55 54° E 18:21:54 10° NNE
Cosmos 2173 Rocket 4.2 18:10:30 10° N 18:16:39 47° ENE 18:18:25 38° ESE
YAOGAN 1 3.9 18:13:41 10° SSW 18:17:42 40° W 18:21:46 10° NNW
Cosmos 1862 Rocket 4.3 18:13:40 10° SSW 18:17:59 54° WNW 18:22:18 10° N
Meteor 1-24 Rocket 3.7 18:14:45 10° S 18:20:31 77° E 18:26:31 10° NNE
Cosmos 1908 Rocket 3.5 18:22:20 10° NNW 18:26:44 80° W 18:31:07 10° S
Cosmos 372 Rocket 4.5 18:22:00 10° NNW 18:26:05 42° NNE 18:26:05 42° NNE
Cosmos 1898 Rocket 4.3 18:23:12 10° NNW 18:27:11 36° NNE 18:27:11 36° NNE
ATLAS 3B R/B 3.3 18:21:49 10° NW 18:29:26 48° NNE 18:31:24 40° ENE
Cosmos 909 Rocket 4.2 18:22:12 10° SW 18:29:29 79° NW 18:32:44 32° NE
DMSP B5D1-3 4.3 18:29:09 30° NNE 18:31:43 83° ESE 18:36:48 10° SSW
Cosmos 1802 Rocket 4.4 18:26:21 10° N 18:31:19 41° NE 18:31:19 41° NE
Cosmos 2237 Rocket 4.3 18:37:41 10° N 18:39:57 12° NNE 18:39:57 12° NNE
Cosmos 1809 Rocket 4.3 18:34:12 10° S 18:40:23 82° E 18:46:37 10° NNE
Cosmos 1727 Rocket 3.8 18:37:37 10° S 18:43:52 70° E 18:50:05 10° NNE
Meteor 2-5 Rocket 3.8 18:39:44 10° SSW 18:45:22 80° WNW 18:51:11 10° NNE
Cosmos 2322 Rocket 3.0 18:40:37 10° NNW 18:44:45 37° NNE 18:44:45 37° NNE
Cosmos 2278 4.0 18:40:52 10° NNW 18:45:42 52° NNE 18:45:42 52° NNE
Aureole 1 Rocket 3.6 18:42:40 10° NNW 18:49:20 78° ENE 18:49:36 76° E
Terra 4.3 18:56:22 10° N 18:56:22 10° N 18:56:25 10° N
USA 215 4.2 18:59:01 31° SSE 18:59:01 31° SSE 19:03:06 10° SSW
Cosmos 540 Rocket 4.3 18:53:49 10° SSW 18:56:54 38° SSW 18:56:54 38° SSW
ATLAS 2AS CENTAUR R/B 4.1 18:54:22 10° S 18:57:06 23° SSE 18:57:06 23° SSE
Cosmos 2333 Rocket 2.6 18:56:41 10° NNW 19:01:16 54° N 19:01:16 54° N
Cosmos 1980 Rocket 4.0 18:58:49 10° NW 19:03:34 29° WSW 19:08:17 10° SSW
CSL-04 Rocket 3.8 19:05:32 64° NNW 19:05:32 64° NNW 19:10:03 10° NNW
Cosmos 1763 Rocket 4.1 19:00:45 10° SSW 19:04:22 47° SW 19:04:22 47° SW
USA 229 DEB 3.9 19:13:46 10° NW 19:20:58 72° NE 19:20:58 72° NE
Cosmos 2219 Rocket 3.7 19:15:43 10° NNW 19:18:24 26° N 19:18:24 26° N
USA 229 3.9 19:13:51 10° NW 19:21:02 72° NE 19:21:02 72° NE
ISS -0.3 19:19:01 10° W 19:19:19 12° W 19:19:19 12° W
Resurs 01 Rocket 4.1 19:27:12 10° SW 19:30:22 19° W 19:33:33 10° NW
USA 267 3.3 19:33:46 76° W 19:33:46 76° W 19:39:51 10° WNW
Cosmos 2360 Rocket 3.5 19:29:00 10° NNW 19:31:59 32° NNW 19:31:59 32° NNW
Cosmos 1459 Rocket 4.4 19:31:36 10° NNW 19:37:23 57° W 19:37:23 57° W
Cosmos 2082 Rocket 3.2 19:34:35 10° SW 19:38:38 42° W 19:38:38 42° W
SL-16 R/B 3.3 19:39:15 10° NW 19:43:10 41° WNW 19:43:10 41° WNW
ATLAS 3B R/B 3.6 20:12:57 10° NW 20:18:40 51° WNW 20:18:40 51° WNW
Cosmos 2322 Rocket 4.4 20:24:46 10° NW 20:26:34 20° NW 20:26:34 20° NW
